Home   Weather   Jerusalem   Past weeks
Flag for Israel

Past Weather in Jerusalem, Israel — Yesterday and Last 2 Weeks

Now
77 °F

Passing clouds.


Feels Like: 79 °F
Forecast: 85 / 64 °F
Wind: 5 mph from South

Location: Ben Gurion International Airport

Current Time: Jul 21, 2019 at 5:47:38 am

Latest Report: Jul 21, 2019 at 5:20 am


Visibility: N/A

Pressure: 29.83 "Hg (27.31 "Hg at 769m altitude)

Humidity: 74%

Dew Point: 68 °F

Location of JerusalemLocation

Past Weather in Jerusalem — Graph

°F

Jerusalem Temperature Yesterday

Maximum temperature yesterday: 88 °F (at 1:20 pm)
Minimum temperature yesterday: 75 °F (at 5:20 am)
Average temperature yesterday: 81 °F

High & Low Weather Summary for the Past Weeks

 TemperatureHumidityPressure
High106 °F (Jul 17, 10:50 am)89% (Jul 11, 3:50 am)29.86 "Hg (Jul 11, 3:50 am)
Low73 °F (Jul 6, 5:20 am)16% (Jul 17, 10:20 am)29.59 "Hg (Jul 17, 9:20 am)
Average83 °F65%29.75 "Hg
* Reported Jul 6 4:20 am — Jul 21 4:20 am, Jerusalem. Weather by CustomWeather, © 2019

Note: Actual official high and low records may vary slightly from our data, if they occured in-between our weather recording intervals... More about our weather records

Advertising

Jerusalem Weather History for the Previous 24 Hours

Scroll right to see more
 ConditionsComfort  
Time TempWeatherWind HumidityBarometerVisibility
4:20 am
Sun, Jul 21
77 °FPassing clouds.6 mph74%29.83 "HgN/A
3:50 am77 °FPassing clouds.6 mph74%29.83 "HgN/A
3:20 am77 °FPassing clouds.5 mph74%29.83 "HgN/A
2:50 am77 °FPassing clouds.5 mph74%29.83 "HgN/A
2:20 am79 °FPassing clouds.5 mph70%29.83 "HgN/A
1:50 am77 °FPassing clouds.5 mph74%29.83 "HgN/A
1:20 am77 °FPassing clouds.3 mph74%29.83 "HgN/A
12:50 am79 °FPassing clouds.5 mph70%29.83 "HgN/A
12:20 am79 °FPassing clouds.5 mph70%29.83 "HgN/A
11:50 pm
Sat, Jul 20
79 °FPassing clouds.5 mph70%29.86 "HgN/A
11:20 pm79 °FPassing clouds.7 mph70%29.86 "HgN/A
10:50 pm79 °FPassing clouds.7 mph74%29.86 "HgN/A
10:20 pm81 °FPassing clouds.7 mph70%29.86 "HgN/A
9:50 pm81 °FPassing clouds.7 mph66%29.86 "HgN/A
9:20 pm81 °FPassing clouds.7 mph66%29.86 "HgN/A
8:50 pm81 °FPassing clouds.7 mph66%29.86 "HgN/A
8:20 pm81 °FPassing clouds.7 mph70%29.83 "HgN/A
7:50 pm82 °FPassing clouds.9 mph62%29.83 "HgN/A
7:20 pm82 °FScattered clouds.10 mph62%29.83 "HgN/A
6:50 pm82 °FScattered clouds.12 mph62%29.83 "HgN/A
6:20 pm84 °FPassing clouds.12 mph58%29.83 "HgN/A
5:50 pm86 °FPassing clouds.12 mph52%29.83 "HgN/A
5:20 pm84 °FPassing clouds.10 mph58%29.83 "HgN/A
4:50 pm86 °FPassing clouds.10 mph55%29.83 "HgN/A
4:20 pm84 °FPassing clouds.12 mph58%29.83 "HgN/A
3:50 pm86 °FPassing clouds.12 mph52%29.83 "HgN/A
2:50 pm86 °FPassing clouds.10 mph52%29.83 "HgN/A
2:20 pm88 °FPassing clouds.13 mph49%29.83 "HgN/A
1:50 pm86 °FPassing clouds.14 mph55%29.83 "HgN/A
1:20 pm88 °FPassing clouds.14 mph49%29.86 "HgN/A
12:50 pm86 °FPassing clouds.9 mph52%29.83 "HgN/A
12:20 pm86 °FPassing clouds.12 mph52%29.86 "HgN/A
11:50 am86 °FPassing clouds.10 mph52%29.86 "HgN/A
11:20 am86 °FPassing clouds.9 mph52%29.86 "HgN/A
10:50 am84 °FPassing clouds.6 mph55%29.86 "HgN/A
10:20 am84 °FPassing clouds.6 mph55%29.86 "HgN/A
9:50 am84 °FScattered clouds.5 mph55%29.86 "HgN/A
9:20 am82 °FScattered clouds.3 mph58%29.86 "HgN/A
8:50 am81 °FScattered clouds.5 mph66%29.86 "HgN/A
8:20 am81 °FScattered clouds.3 mph66%29.86 "HgN/A
7:50 am79 °FPartly sunny.3 mph70%29.86 "HgN/A
7:20 am77 °FScattered clouds.5 mph74%29.86 "HgN/A
6:50 am77 °FScattered clouds.3 mph74%29.86 "HgN/A
6:20 am77 °FScattered clouds.3 mph74%29.86 "HgN/A
5:50 am75 °FPassing clouds.5 mph78%29.86 "HgN/A
5:20 am75 °FPassing clouds.6 mph78%29.83 "HgN/A
Weather by CustomWeather, © 2019

See weather overview